• In Portugal
  • List of Countries
  • For 7 days
  • Water Temperature
  • Satellite Maps
  • Weather Map
  • Weather Widgets
  • user-avatar
    Login

    Hourly Weather Ashtarak

    Today, 18 February, Sunday

    Time Temperature Precipitation Wind Pressure Humidity
    00:00 +5°C° 0.1 mm 2 mps 654 mmHg 74%
    01:00 +5°C° 0.4 mm 2 mps 654 mmHg 76%
    02:00 +4°C° 0.4 mm 2 mps 654 mmHg 77%
    03:00 +4°C° 0.4 mm 2 mps 653 mmHg 79%
    04:00 +4°C° 0.7 mm 2 mps 653 mmHg 80%
    05:00 +3°C° 0.7 mm 3 mps 653 mmHg 80%
    06:00 +3°C° 0.7 mm 3 mps 652 mmHg 81%
    07:00 +3°C° 1.1 mm 3 mps 653 mmHg 81%
    08:00 +3°C° 1.1 mm 3 mps 653 mmHg 81%
    09:00 +3°C° 1.1 mm 3 mps 653 mmHg 81%
    10:00 +3°C° 0.9 mm 3 mps 652 mmHg 80%
    11:00 +4°C° 0.9 mm 3 mps 652 mmHg 78%
    12:00 +4°C° 0.9 mm 4 mps 652 mmHg 77%
    13:00 +4°C° 0.6 mm 4 mps 651 mmHg 77%
    14:00 +4°C° 0.6 mm 4 mps 651 mmHg 76%
    15:00 +4°C° 0.6 mm 4 mps 650 mmHg 76%
    16:00 +4°C° 0.7 mm 4 mps 651 mmHg 77%
    17:00 +3°C° 0.7 mm 4 mps 651 mmHg 79%
    18:00 +3°C° 0.7 mm 3 mps 651 mmHg 80%
    19:00 +3°C° 0.6 mm 3 mps 651 mmHg 80%
    20:00 +3°C° 0.6 mm 3 mps 652 mmHg 81%
    21:00 +2°C° 0.6 mm 3 mps 652 mmHg 81%
    22:00 +2°C° 0.4 mm 3 mps 652 mmHg 82%
    23:00 +2°C° 0.4 mm 3 mps 653 mmHg 82%

    Tomorrow, 19 February, Monday

    Time Temperature Precipitation Wind Pressure Humidity
    00:00 +2°C° 0.4 mm 3 mps 653 mmHg 82%
    01:00 +3°C° 0.4 mm 2 mps 653 mmHg 83%
    02:00 +2°C° 0.4 mm 2 mps 653 mmHg 83%
    03:00 +2°C° 0.4 mm 2 mps 653 mmHg 84%
    04:00 +2°C° 0.3 mm 2 mps 653 mmHg 84%
    05:00 +2°C° 0.3 mm 2 mps 653 mmHg 84%
    06:00 +2°C° 0.3 mm 2 mps 654 mmHg 84%
    07:00 +2°C° 0.2 mm 2 mps 654 mmHg 82%
    08:00 +4°C° 0.2 mm 1 mps 654 mmHg 80%
    09:00 +4°C° 0.2 mm 1 mps 654 mmHg 78%
    10:00 +5°C° 0.2 mm 1 mps 654 mmHg 77%
    11:00 +5°C° 0.2 mm 1 mps 654 mmHg 75%
    12:00 +6°C° 0.2 mm 1 mps 654 mmHg 73%
    13:00 +6°C° 0.1 mm 1 mps 654 mmHg 72%
    14:00 +7°C° 0.1 mm 1 mps 654 mmHg 70%
    15:00 +7°C° 0.1 mm 1 mps 654 mmHg 68%
    16:00 +6°C° 0 mm 1 mps 654 mmHg 70%
    17:00 +5°C° 0 mm 1 mps 654 mmHg 71%
    18:00 +4°C° 0 mm 1 mps 654 mmHg 72%
    19:00 +3°C° 0 mm 1 mps 654 mmHg 72%
    20:00 +3°C° 0 mm 1 mps 655 mmHg 72%
    21:00 +2°C° 0 mm 1 mps 655 mmHg 72%
    22:00 +2°C° 0 mm 1 mps 655 mmHg 72%
    23:00 +2°C° 0 mm 1 mps 655 mmHg 71%

    Day after tomorrow, 20 February, Tuesday

    Time Temperature Precipitation Wind Pressure Humidity
    00:00 +1°C° 0 mm 1 mps 655 mmHg 71%
    01:00 +1°C° 0 mm 1 mps 655 mmHg 72%
    02:00 +1°C° 0 mm 1 mps 655 mmHg 72%
    03:00 +1°C° 0 mm 1 mps 655 mmHg 72%
    04:00 +1°C° 0 mm 1 mps 655 mmHg 73%
    05:00 +1°C° 0 mm 1 mps 655 mmHg 74%
    06:00 +1°C° 0 mm 1 mps 655 mmHg 74%
    07:00 +1°C° 0 mm 2 mps 656 mmHg 73%
    08:00 +2°C° 0 mm 2 mps 656 mmHg 71%
    09:00 +3°C° 0 mm 2 mps 656 mmHg 69%
    10:00 +4°C° 0 mm 2 mps 656 mmHg 67%
    11:00 +5°C° 0 mm 2 mps 656 mmHg 64%
    12:00 +6°C° 0 mm 2 mps 656 mmHg 61%
    13:00 +6°C° 0 mm 2 mps 655 mmHg 60%
    14:00 +6°C° 0 mm 2 mps 655 mmHg 58%
    15:00 +7°C° 0 mm 2 mps 655 mmHg 57%
    16:00 +6°C° 0 mm 2 mps 654 mmHg 59%
    17:00 +4°C° 0 mm 2 mps 654 mmHg 60%
    18:00 +3°C° 0 mm 2 mps 654 mmHg 62%
    19:00 +3°C° 0 mm 2 mps 654 mmHg 62%
    20:00 +4°C° 0 mm 1 mps 655 mmHg 62%
    21:00 +3°C° 0 mm 1 mps 655 mmHg 62%
    22:00 +3°C° 0 mm 1 mps 655 mmHg 63%
    23:00 +3°C° 0 mm 1 mps 655 mmHg 64%

    21 February, Wednesday

    Time Temperature Precipitation Wind Pressure Humidity
    00:00 +2°C° 0 mm 1 mps 655 mmHg 65%
    01:00 +2°C° 0.1 mm 1 mps 655 mmHg 66%
    02:00 +2°C° 0.1 mm 1 mps 655 mmHg 68%
    03:00 +2°C° 0.1 mm 1 mps 655 mmHg 70%
    04:00 +2°C° 0.1 mm 1 mps 655 mmHg 71%
    05:00 +2°C° 0.1 mm 1 mps 655 mmHg 72%
    06:00 +2°C° 0.1 mm 1 mps 655 mmHg 73%
    07:00 +3°C° 0.1 mm 1 mps 655 mmHg 72%
    08:00 +3°C° 0.1 mm 1 mps 656 mmHg 70%
    09:00 +4°C° 0.1 mm 1 mps 656 mmHg 69%
    10:00 +4°C° 0.1 mm 2 mps 656 mmHg 67%
    11:00 +5°C° 0.1 mm 2 mps 656 mmHg 66%
    12:00 +6°C° 0.1 mm 2 mps 655 mmHg 65%
    13:00 +6°C° 0.1 mm 2 mps 655 mmHg 64%
    14:00 +6°C° 0.1 mm 2 mps 655 mmHg 64%
    15:00 +6°C° 0.1 mm 2 mps 654 mmHg 63%
    16:00 +6°C° 0.1 mm 2 mps 654 mmHg 65%
    17:00 +5°C° 0.1 mm 2 mps 655 mmHg 67%
    18:00 +4°C° 0.1 mm 2 mps 655 mmHg 69%
    19:00 +4°C° 0.1 mm 1 mps 655 mmHg 70%
    20:00 +4°C° 0.1 mm 1 mps 655 mmHg 70%
    21:00 +4°C° 0.1 mm 1 mps 656 mmHg 71%
    22:00 +3°C° 0.1 mm 1 mps 656 mmHg 71%
    23:00 +3°C° 0.1 mm 1 mps 656 mmHg 72%

    22 February, Thursday

    Time Temperature Precipitation Wind Pressure Humidity
    00:00 +3°C° 0.1 mm 1 mps 656 mmHg 72%
    01:00 +3°C° 0.1 mm 1 mps 656 mmHg 73%
    02:00 +2°C° 0.1 mm 1 mps 656 mmHg 74%
    03:00 +2°C° 0.1 mm 1 mps 656 mmHg 74%
    04:00 +2°C° 0.1 mm 1 mps 656 mmHg 75%
    05:00 +2°C° 0.1 mm 1 mps 656 mmHg 76%
    06:00 +2°C° 0.1 mm 1 mps 656 mmHg 76%
    07:00 +3°C° 0.1 mm 1 mps 656 mmHg 75%
    08:00 +4°C° 0.1 mm 1 mps 656 mmHg 73%
    09:00 +4°C° 0.1 mm 2 mps 656 mmHg 71%
    10:00 +4°C° 0.1 mm 2 mps 656 mmHg 69%
    11:00 +5°C° 0.1 mm 2 mps 656 mmHg 68%
    12:00 +6°C° 0.1 mm 2 mps 655 mmHg 66%
    13:00 +6°C° 0 mm 2 mps 655 mmHg 65%
    14:00 +7°C° 0 mm 2 mps 654 mmHg 63%
    15:00 +7°C° 0 mm 2 mps 654 mmHg 62%
    16:00 +6°C° 0 mm 2 mps 654 mmHg 63%
    17:00 +5°C° 0 mm 2 mps 654 mmHg 65%
    18:00 +4°C° 0 mm 2 mps 654 mmHg 66%
    19:00 +4°C° 0 mm 2 mps 654 mmHg 67%
    20:00 +3°C° 0 mm 2 mps 654 mmHg 67%
    21:00 +4°C° 0 mm 1 mps 655 mmHg 67%
    22:00 +3°C° 0 mm 1 mps 655 mmHg 68%
    23:00 +3°C° 0 mm 1 mps 654 mmHg 68%

    23 February, Friday

    Time Temperature Precipitation Wind Pressure Humidity
    00:00 +3°C° 0 mm 1 mps 654 mmHg 69%
    01:00 +3°C° 0 mm 1 mps 654 mmHg 69%
    02:00 +2°C° 0 mm 1 mps 654 mmHg 70%
    03:00 +2°C° 0 mm 1 mps 654 mmHg 70%
    04:00 +2°C° 0 mm 1 mps 654 mmHg 71%
    05:00 +2°C° 0 mm 1 mps 654 mmHg 71%
    06:00 +1°C° 0 mm 1 mps 654 mmHg 71%
    07:00 +3°C° 0 mm 1 mps 654 mmHg 69%
    08:00 +4°C° 0 mm 1 mps 654 mmHg 67%
    09:00 +5°C° 0 mm 1 mps 655 mmHg 64%
    10:00 +6°C° 0 mm 1 mps 654 mmHg 63%
    11:00 +7°C° 0 mm 1 mps 654 mmHg 62%
    12:00 +8°C° 0 mm 1 mps 654 mmHg 61%
    13:00 +8°C° 0 mm 1 mps 654 mmHg 59%
    14:00 +9°C° 0 mm 1 mps 653 mmHg 57%
    15:00 +9°C° 0 mm 1 mps 653 mmHg 55%
    16:00 +8°C° 0 mm 1 mps 653 mmHg 57%
    17:00 +6°C° 0 mm 1 mps 653 mmHg 59%
    18:00 +5°C° 0 mm 1 mps 653 mmHg 61%
    19:00 +5°C° 0 mm 1 mps 653 mmHg 63%
    20:00 +4°C° 0 mm 1 mps 654 mmHg 65%
    21:00 +4°C° 0 mm 1 mps 654 mmHg 67%
    22:00 +4°C° 0 mm 1 mps 654 mmHg 68%
    23:00 +2°C° 0 mm 2 mps 654 mmHg 69%
    Show more